When you browse on this site, cookies collect data to enhance your experience and personalize the content and advertising you see.
Visit our Privacy Policy to learn more. By continuing to use the site, you agree to this use of cookies and data.
  • In Hungary
  • List of Countries
  • For 7 days
  • Water Temperature
  • Weather Map
  • News
  • Weather Widgets
  • user-avatar
    Login

    Hourly Weather Vyselki

    Today, 21 October, Monday

    Time Temperature Precipitation Wind Pressure Humidity
    00:00 +14°C° 0 mm 3 mps 764 mmHg 71%
    01:00 +13°C° 0 mm 3 mps 764 mmHg 74%
    02:00 +13°C° 0 mm 3 mps 764 mmHg 77%
    03:00 +12°C° 0 mm 3 mps 764 mmHg 79%
    04:00 +12°C° 0 mm 3 mps 764 mmHg 80%
    05:00 +12°C° 0 mm 3 mps 764 mmHg 81%
    06:00 +12°C° 0 mm 3 mps 765 mmHg 81%
    07:00 +12°C° 0 mm 3 mps 765 mmHg 75%
    08:00 +13°C° 0 mm 3 mps 765 mmHg 69%
    09:00 +14°C° 0 mm 4 mps 765 mmHg 63%
    10:00 +17°C° 0 mm 4 mps 765 mmHg 56%
    11:00 +19°C° 0 mm 4 mps 765 mmHg 49%
    12:00 +20°C° 0 mm 4 mps 765 mmHg 42%
    13:00 +21°C° 0 mm 4 mps 765 mmHg 40%
    14:00 +22°C° 0 mm 3 mps 765 mmHg 38%
    15:00 +22°C° 0 mm 3 mps 764 mmHg 35%
    16:00 +21°C° 0 mm 3 mps 764 mmHg 40%
    17:00 +20°C° 0 mm 2 mps 764 mmHg 44%
    18:00 +18°C° 0 mm 2 mps 764 mmHg 48%
    19:00 +18°C° 0 mm 2 mps 764 mmHg 52%
    20:00 +17°C° 0 mm 2 mps 764 mmHg 56%
    21:00 +16°C° 0 mm 2 mps 764 mmHg 59%
    22:00 +16°C° 0 mm 2 mps 764 mmHg 61%
    23:00 +15°C° 0 mm 2 mps 764 mmHg 62%

    Tomorrow, 22 October, Tuesday

    Time Temperature Precipitation Wind Pressure Humidity
    00:00 +15°C° 0 mm 2 mps 764 mmHg 63%
    01:00 +14°C° 0 mm 2 mps 764 mmHg 65%
    02:00 +14°C° 0 mm 1 mps 764 mmHg 67%
    03:00 +14°C° 0 mm 1 mps 764 mmHg 68%
    04:00 +13°C° 0 mm 1 mps 764 mmHg 70%
    05:00 +13°C° 0 mm 1 mps 764 mmHg 71%
    06:00 +13°C° 0 mm 1 mps 764 mmHg 72%
    07:00 +14°C° 0 mm 1 mps 764 mmHg 68%
    08:00 +14°C° 0 mm 1 mps 764 mmHg 65%
    09:00 +15°C° 0 mm 1 mps 764 mmHg 61%
    10:00 +18°C° 0 mm 1 mps 764 mmHg 56%
    11:00 +19°C° 0 mm 1 mps 764 mmHg 50%
    12:00 +21°C° 0 mm 1 mps 764 mmHg 45%
    13:00 +21°C° 0 mm 1 mps 764 mmHg 43%
    14:00 +22°C° 0 mm 1 mps 764 mmHg 41%
    15:00 +20°C° 0 mm 0 mps 763 mmHg 38%
    16:00 +19°C° 0 mm 0 mps 763 mmHg 42%
    17:00 +18°C° 0 mm 0 mps 763 mmHg 45%
    18:00 +17°C° 0 mm 0 mps 763 mmHg 48%
    19:00 +17°C° 0 mm 0 mps 763 mmHg 50%
    20:00 +16°C° 0 mm 0 mps 763 mmHg 51%
    21:00 +18°C° 0 mm 1 mps 764 mmHg 53%
    22:00 +15°C° 0 mm 0 mps 763 mmHg 54%
    23:00 +15°C° 0 mm 0 mps 763 mmHg 56%

    Day after tomorrow, 23 October, Wednesday

    Time Temperature Precipitation Wind Pressure Humidity
    00:00 +14°C° 0 mm 0 mps 763 mmHg 57%
    01:00 +14°C° 0 mm 0 mps 763 mmHg 58%
    02:00 +14°C° 0 mm 0 mps 763 mmHg 59%
    03:00 +14°C° 0 mm 0 mps 764 mmHg 60%
    04:00 +13°C° 0 mm 0 mps 764 mmHg 60%
    05:00 +13°C° 0 mm 0 mps 763 mmHg 61%
    06:00 +13°C° 0 mm 0 mps 763 mmHg 62%
    07:00 +14°C° 0 mm 0 mps 764 mmHg 59%
    08:00 +16°C° 0 mm 1 mps 764 mmHg 56%
    09:00 +16°C° 0 mm 1 mps 764 mmHg 54%
    10:00 +19°C° 0 mm 1 mps 764 mmHg 50%
    11:00 +20°C° 0 mm 1 mps 764 mmHg 46%
    12:00 +20°C° 0 mm 2 mps 764 mmHg 43%
    13:00 +22°C° 0 mm 1 mps 763 mmHg 42%
    14:00 +22°C° 0 mm 1 mps 763 mmHg 41%
    15:00 +22°C° 0 mm 1 mps 763 mmHg 40%
    16:00 +21°C° 0 mm 1 mps 763 mmHg 43%
    17:00 +20°C° 0 mm 1 mps 763 mmHg 46%
    18:00 +19°C° 0 mm 1 mps 763 mmHg 49%
    19:00 +19°C° 0 mm 1 mps 763 mmHg 50%
    20:00 +18°C° 0 mm 1 mps 763 mmHg 51%
    21:00 +18°C° 0 mm 1 mps 763 mmHg 53%
    22:00 +16°C° 0 mm 1 mps 763 mmHg 54%
    23:00 +15°C° 0 mm 1 mps 763 mmHg 56%

    24 October, Thursday

    Time Temperature Precipitation Wind Pressure Humidity
    00:00 +15°C° 0 mm 2 mps 763 mmHg 57%
    01:00 +15°C° 0 mm 1 mps 763 mmHg 58%
    02:00 +14°C° 0 mm 1 mps 763 mmHg 59%
    03:00 +14°C° 0 mm 1 mps 763 mmHg 60%
    04:00 +13°C° 0 mm 1 mps 763 mmHg 61%
    05:00 +13°C° 0 mm 1 mps 763 mmHg 62%
    06:00 +13°C° 0 mm 1 mps 763 mmHg 62%
    07:00 +14°C° 0 mm 1 mps 763 mmHg 59%
    08:00 +14°C° 0 mm 2 mps 763 mmHg 56%
    09:00 +15°C° 0 mm 2 mps 763 mmHg 53%
    10:00 +17°C° 0 mm 2 mps 763 mmHg 48%
    11:00 +18°C° 0 mm 2 mps 762 mmHg 43%
    12:00 +20°C° 0 mm 2 mps 762 mmHg 38%
    13:00 +20°C° 0 mm 2 mps 762 mmHg 36%
    14:00 +20°C° 0 mm 2 mps 762 mmHg 34%
    15:00 +21°C° 0 mm 2 mps 761 mmHg 32%
    16:00 +20°C° 0 mm 2 mps 761 mmHg 35%
    17:00 +19°C° 0 mm 2 mps 761 mmHg 37%
    18:00 +19°C° 0 mm 1 mps 761 mmHg 40%
    19:00 +18°C° 0 mm 1 mps 761 mmHg 41%
    20:00 +17°C° 0 mm 2 mps 761 mmHg 43%
    21:00 +16°C° 0 mm 2 mps 761 mmHg 44%
    22:00 +15°C° 0 mm 2 mps 761 mmHg 47%
    23:00 +15°C° 0 mm 2 mps 761 mmHg 50%

    25 October, Friday

    Time Temperature Precipitation Wind Pressure Humidity
    00:00 +14°C° 0 mm 2 mps 761 mmHg 53%
    01:00 +14°C° 0 mm 2 mps 761 mmHg 55%
    02:00 +13°C° 0 mm 1 mps 761 mmHg 57%
    03:00 +13°C° 0 mm 1 mps 761 mmHg 58%
    04:00 +13°C° 0 mm 1 mps 761 mmHg 59%
    05:00 +12°C° 0 mm 1 mps 761 mmHg 61%
    06:00 +12°C° 0 mm 1 mps 761 mmHg 62%
    07:00 +13°C° 0 mm 2 mps 761 mmHg 59%
    08:00 +14°C° 0 mm 2 mps 761 mmHg 56%
    09:00 +14°C° 0 mm 2 mps 761 mmHg 53%
    10:00 +16°C° 0 mm 2 mps 761 mmHg 48%
    11:00 +17°C° 0 mm 2 mps 761 mmHg 43%
    12:00 +19°C° 0 mm 2 mps 761 mmHg 38%
    13:00 +19°C° 0 mm 2 mps 761 mmHg 36%
    14:00 +20°C° 0 mm 2 mps 761 mmHg 34%
    15:00 +20°C° 0 mm 2 mps 761 mmHg 33%
    16:00 +19°C° 0 mm 2 mps 761 mmHg 35%
    17:00 +18°C° 0 mm 2 mps 761 mmHg 38%
    18:00 +17°C° 0 mm 2 mps 761 mmHg 41%
    19:00 +16°C° 0 mm 2 mps 761 mmHg 44%
    20:00 +16°C° 0 mm 2 mps 761 mmHg 47%
    21:00 +15°C° 0 mm 2 mps 761 mmHg 50%
    22:00 +15°C° 0 mm 2 mps 761 mmHg 52%
    23:00 +14°C° 0 mm 2 mps 761 mmHg 54%

    26 October, Saturday

    Time Temperature Precipitation Wind Pressure Humidity
    00:00 +14°C° 0 mm 2 mps 761 mmHg 56%
    01:00 +13°C° 0 mm 2 mps 761 mmHg 57%
    02:00 +13°C° 0 mm 2 mps 761 mmHg 57%
    03:00 +12°C° 0 mm 2 mps 762 mmHg 58%
    04:00 +12°C° 0 mm 2 mps 762 mmHg 59%
    05:00 +10°C° 0 mm 3 mps 762 mmHg 61%
    06:00 +10°C° 0 mm 3 mps 762 mmHg 62%
    07:00 +11°C° 0 mm 3 mps 762 mmHg 59%
    08:00 +12°C° 0 mm 3 mps 762 mmHg 56%
    09:00 +12°C° 0 mm 3 mps 762 mmHg 54%
    10:00 +14°C° 0 mm 3 mps 762 mmHg 49%
    11:00 +17°C° 0 mm 3 mps 762 mmHg 45%
    12:00 +18°C° 0 mm 3 mps 763 mmHg 41%
    13:00 +19°C° 0 mm 3 mps 762 mmHg 39%
    14:00 +19°C° 0 mm 3 mps 762 mmHg 37%
    15:00 +20°C° 0 mm 3 mps 762 mmHg 36%
    16:00 +19°C° 0 mm 3 mps 762 mmHg 39%
    17:00 +18°C° 0 mm 2 mps 762 mmHg 42%
    18:00 +16°C° 0 mm 2 mps 762 mmHg 45%
    19:00 +16°C° 0 mm 2 mps 762 mmHg 47%
    20:00 +15°C° 0 mm 2 mps 762 mmHg 49%
    21:00 +14°C° 0 mm 3 mps 762 mmHg 51%
    22:00 +14°C° 0 mm 3 mps 762 mmHg 52%
    23:00 +15°C° 0 mm 2 mps 762 mmHg 53%

    27 October, Sunday

    Time Temperature Precipitation Wind Pressure Humidity
    00:00 +14°C° 0 mm 2 mps 762 mmHg 54%
    01:00 +15°C° 0 mm 2 mps 762 mmHg 55%
    02:00 +15°C° 0 mm 2 mps 762 mmHg 56%
    03:00 +15°C° 0 mm 2 mps 762 mmHg 57%
    04:00 +14°C° 0 mm 2 mps 762 mmHg 58%
    05:00 +14°C° 0 mm 2 mps 762 mmHg 60%
    06:00 +14°C° 0 mm 2 mps 762 mmHg 62%
    07:00 +13°C° 0 mm 3 mps 762 mmHg 60%
    08:00 +14°C° 0 mm 3 mps 762 mmHg 59%
    09:00 +14°C° 0 mm 3 mps 762 mmHg 57%
    10:00 +17°C° 0 mm 3 mps 762 mmHg 54%
    11:00 +18°C° 0 mm 3 mps 761 mmHg 50%
    12:00 +20°C° 0 mm 3 mps 761 mmHg 47%
    13:00 +20°C° 0 mm 2 mps 761 mmHg 45%
    14:00 +20°C° 0 mm 2 mps 761 mmHg 44%
    15:00 +21°C° 0 mm 1 mps 760 mmHg 43%
    16:00 +20°C° 0 mm 1 mps 760 mmHg 47%
    17:00 +19°C° 0 mm 1 mps 760 mmHg 50%
    18:00 +18°C° 0 mm 1 mps 760 mmHg 54%
    19:00 +18°C° 0 mm 1 mps 760 mmHg 56%
    20:00 +16°C° 0 mm 1 mps 760 mmHg 57%
    21:00 +16°C° 0 mm 1 mps 760 mmHg 59%
    22:00 +15°C° 0 mm 1 mps 760 mmHg 60%
    23:00 +15°C° 0 mm 1 mps 760 mmHg 62%
    Show more